EDT,Max TemperatureF,Mean TemperatureF,Min TemperatureF,Max Dew PointF,MeanDew PointF,Min DewpointF,Max Humidity, Mean Humidity, Min Humidity, Max Sea Level PressureIn, Mean Sea Level PressureIn, Min Sea Level PressureIn, Max VisibilityMiles, Mean VisibilityMiles, Min VisibilityMiles, Max Wind SpeedMPH, Mean Wind SpeedMPH, Max Gust SpeedMPH,PrecipitationIn, CloudCover, Events, WindDirDegrees
2012-9-1,87,76,66,72,68,66,100,79,51,30.25,30.19,30.11,10,10,5,12,1,,0.00,3,Rain,106
2012-9-2,82,74,66,73,68,64,100,86,58,30.13,30.06,29.97,10,10,2,15,3,28,0.00,1,Rain,74
2012-9-3,80,73,66,72,68,64,100,90,65,30.02,30.00,29.95,10,10,4,14,3,,0.00,3,Rain,74
2012-9-4,82,73,64,72,67,64,100,84,62,30.00,29.97,29.93,10,10,2,7,3,,0.00,6,Rain,104
2012-9-5,84,76,69,72,70,66,100,92,58,30.00,29.95,29.89,10,8,1,9,1,,0.00,6,Rain,342
2012-9-6,80,73,64,70,67,64,100,85,61,30.04,29.99,29.94,10,10,5,8,2,,0.00,5,,268
2012-9-7,87,74,62,72,65,63,100,80,43,30.05,29.98,29.89,10,9,5,6,1,,0.00,0,,46
2012-9-8,78,66,53,66,62,52,100,87,61,29.99,29.87,29.82,10,10,3,15,2,28,0.00,4,Rain,260
2012-9-9,71,58,46,57,52,46,100,81,46,30.10,30.02,29.96,10,10,9,8,1,,0.00,2,,268
2012-9-10,75,62,50,57,53,48,100,77,41,30.22,30.16,30.09,10,10,10,8,2,,0.00,1,,349
2012-9-11,77,64,51,61,53,48,94,73,44,30.31,30.27,30.22,10,10,10,8,2,,0.00,2,,46
2012-9-12,80,66,53,63,56,54,100,74,42,30.38,30.33,30.26,10,10,9,7,2,,0.00,2,,56
2012-9-13,78,66,53,63,54,48,100,74,36,30.40,30.33,30.26,10,10,10,9,3,,0.00,0,,80
2012-9-14,78,66,55,63,56,52,100,75,39,30.32,30.27,30.22,10,10,10,8,3,,0.00,2,,14
2012-9-15,78,66,53,63,57,54,100,79,47,30.28,30.22,30.16,10,9,1,9,1,,0.00,1,,1
2012-9-16,75,66,57,64,60,57,100,86,61,30.17,30.13,30.08,10,9,2,7,1,,0.00,1,Rain,21
2012-9-17,69,64,60,66,62,57,100,92,78,30.11,30.02,29.83,10,9,2,8,2,,0.00,5,Rain,67
2012-9-18,66,63,59,64,62,54,100,96,82,29.97,29.80,29.70,10,7,1,10,2,,0.00,7,Rain,258
2012-9-19,69,58,48,54,51,48,100,77,49,30.15,30.10,29.99,10,10,9,12,5,,0.00,4,,258
2012-9-20,75,63,51,61,54,50,100,80,44,30.17,30.12,30.06,10,10,10,8,3,,0.00,2,,56
2012-9-21,77,65,53,63,56,52,100,80,44,30.12,30.07,29.99,10,10,7,9,2,,0.00,2,,351
2012-9-22,75,63,51,61,55,48,100,78,53,30.11,30.02,29.97,10,9,4,14,3,,0.00,3,,266
2012-9-23,66,54,42,48,43,37,100,75,35,30.23,30.16,30.11,10,10,9,9,2,,0.00,0,,286
2012-9-24,66,50,35,48,40,36,100,74,32,30.29,30.23,30.16,10,10,10,8,1,,0.00,0,,291
2012-9-25,71,58,44,54,47,43,94,73,38,30.25,30.21,30.16,10,10,10,9,4,,0.00,1,,61
2012-9-26,80,66,51,64,56,52,100,79,44,30.26,30.21,30.18,10,10,10,8,1,,0.00,0,,73
2012-9-27,78,66,55,64,58,54,100,82,50,30.27,30.21,30.16,10,10,1,9,1,,0.00,2,,317
2012-9-28,75,66,57,63,60,55,100,90,65,30.18,30.12,30.06,10,9,2,8,2,,0.00,5,Rain,354
2012-9-29,69,62,55,64,60,55,100,96,77,30.07,30.00,29.95,10,7,2,8,2,,0.00,7,Rain,247
2012-9-30,69,56,44,54,48,43,100,77,40,29.99,29.94,29.88,10,9,3,7,2,,0.00,1,,56